Regional Weather Roundup
Issued by NWS

Home | Current Version | Previous Version | Text Only | Print | Product List | Glossary On
Versions: 1 2 3 4 5 6 7 8 9 10 11 12 13 14 15 16 17 18 19 20 21 22 23 24 25 26 27 28 29 30 31 32 33 34 35 36 37 38 39 40 41 42 43 44 45 46 47 48 49 50
000
ASUS43 KMKX 262200
RWRWI

WISCONSIN REGIONAL WEATHER ROUNDUP
NATIONAL WEATHER SERVICE MILWAUKEE/SULLIVAN WI
400 PM CST SUN FEB 26 2017

NOTE: "FAIR" INDICATES FEW OR NO CLOUDS BELOW 12,000 FEET WITH NO
SIGNIFICANT WEATHER AND/OR OBSTRUCTIONS TO VISIBILITY.

WIZ001-002-006>008-014>016-023>028-262300-
NORTHWEST WISCONSIN

CITY           SKY/WX    TMP DP  RH WIND       PRES   REMARKS
SUPERIOR ARPT  SUNNY     25   7  45 NW12      29.84R WCI  15
ASHLAND        SUNNY     26   8  46 W14       29.82R WCI  14
HAYWARD        MOSUNNY   30  10  43 NW10G18   29.80R WCI  21
SIREN          MOSUNNY   31   9  40 W10       29.82R WCI  22
CUMBERLAND     SUNNY     32  12  43 NW14G21   29.78R WCI  22
RICE LAKE      PTSUNNY   33  20  57 W12G18    29.80R WCI  25
CHETEK         PTSUNNY   33  22  64 NW6       29.79R WCI  28
LADYSMITH      CLOUDY    31  23  72 W14       29.78R WCI  21
EAU CLAIRE     NOT AVBL
MENOMONIE      MOSUNNY   36  23  59 SW10      29.80R WCI  28
NEW RICHMOND   MOSUNNY   34  15  45 W15       29.81R WCI  25
OSCEOLA        SUNNY     35  15  44 NW9G20    29.85R WCI  27
$$

WIZ003>005-009-010-017-018-262300-
NORTH CENTRAL WISCONSIN

CITY           SKY/WX    TMP DP  RH WIND       PRES   REMARKS
MANITOWISH WTR FLURRIES  25  18  77 NW13G21   29.72R WCI  13
ARBOR VITAE    PTSUNNY   29  23  76 NW9G17      N/A  WCI  21
WOODRUFF       PTSUNNY   29  23  76 NW9G17      N/A  WCI  21
RHINELANDER    CLOUDY    30  23  75 W20       29.72R WCI  17
EAGLE RIVER    LGT SNOW  28  20  71 W14G24    29.69R WCI  17
LAND O LAKES   LGT SNOW  26  20  79 W12G21    29.72R WCI  15
PHILLIPS       LGT SNOW  29  23  79 W8        29.73R WCI  21
TOMAHAWK       CLOUDY    32  18  55 W12G23    29.73R WCI  23
MEDFORD        PTSUNNY   31  20  63 SW9       29.75R WCI  23
MERRILL        NOT AVBL
$$

WIZ029-030-035-036-043>047-262300-
CENTRAL WISCONSIN

CITY           SKY/WX    TMP DP  RH WIND       PRES   REMARKS
WAUSAU         CLOUDY    33  22  63 W17G24    29.76R WCI  22
MOSINEE        PTSUNNY   34  21  60 W17G25    29.76S WCI  23
MARSHFIELD     SUNNY     34  18  52 W12       29.77R WCI  25
STEVENS POINT  PTSUNNY   35  19  50 W14G22    29.78R WCI  26
WAUPACA        PTSUNNY   41  19  40 W18G28    29.79R
WAUTOMA        MOSUNNY   40  22  48 W16G25    29.81R WCI  31
WISC RAPIDS    CLOUDY    38  20  48 W15G23    29.80R WCI  29
CAMP DOUGLAS   NOT AVBL
$$

WIZ011>013-019>022-031-037>040-048>050-262300-
NORTHEAST WISCONSIN

CITY           SKY/WX    TMP DP  RH WIND       PRES   REMARKS
ANTIGO         CLOUDY    32  21  65 W22       29.73R WCI  19
SHAWANO        PTSUNNY   40  21  45 W9G20     29.77R WCI  35
OCONTO         PTSUNNY   38  21  51 W15G24    29.76S WCI  29
STURGEON BAY   PTSUNNY   37  23  56 SW14G25   29.77R WCI  28
GREEN BAY      CLOUDY    41  21  44 W17       29.79R
MANITOWOC      NOT AVBL
APPLETON       PTSUNNY   37  21  52 SW16      29.77S WCI  28
CLINTONVILLE   PTSUNNY   37  19  48 W17G24    29.78R WCI  28
OSHKOSH        SUNNY     38  25  59 SW12      29.81R WCI  30
$$

WIZ032>034-041-042-053>061-262300-
SOUTHWEST WISCONSIN

CITY           SKY/WX    TMP DP  RH WIND       PRES   REMARKS
LA CROSSE      MOSUNNY   40  23  50 W13       29.86R WCI  32
SPARTA         SUNNY     40  25  56 W9G16     29.84R WCI  33
VIROQUA        SUNNY     37  23  56 W16G28    29.84R WCI  28
BOSCOBEL       SUNNY     43  21  41 W14G21    29.88R
PRAIRIE DU CHI SUNNY     42  22  45 SW13G20   29.89R
PLATTEVILLE    MOSUNNY   43  28  55 SW23G29   29.89R
$$

WIZ056-057-062-063-064-067-068-262300-
SOUTH CENTRAL WISCONSIN

CITY           SKY/WX    TMP DP  RH WIND       PRES   REMARKS
REEDSBURG      SUNNY     39  24  54 W9        29.85R WCI  33
BARABOO/DELLS  PTSUNNY   39  23  53 SW13G21   29.84R WCI  31
LONE ROCK      NOT AVBL
MINERAL POINT  MOSUNNY   43  28  56 W14G24    29.86R
MADISON        MOSUNNY   41  24  51 W13G22    29.87R
MIDDLETON      MOSUNNY   43  29  57 W17       29.86R
WATERTOWN      SUNNY     42  26  53 SW14G21   29.86R
MONROE         SUNNY     43  23  45 SW21G29   29.87R
JANESVILLE     MOSUNNY   46  21  36 SW21G26   29.88R
$$

WIZ051-052-058>065-066-070>072-262300-
SOUTHEAST WISCONSIN

CITY           SKY/WX    TMP DP  RH WIND       PRES   REMARKS
MILWAUKEE      MOSUNNY   45  22  40 SW18G31   29.88R
WAUKESHA       MOSUNNY   39  23  52 SW17G29   29.87R WCI  30
MILWAUKEE/TIMM MOSUNNY   43  21  42 W14G31    29.87R
RACINE         SUNNY     45  22  40 W16G28    29.90R
KENOSHA        SUNNY     44  23  43 W18G31    29.89R
FOND DU LAC    SUNNY     39  25  57 SW13      29.83R WCI  31
SHEBOYGAN      SUNNY     38  25  59 SW17      29.83R WCI  28
WEST BEND      MOSUNNY   41  27  56 W14       29.84R
JUNEAU         SUNNY     38  27  65 SW21      29.87R WCI  27
$$

LSZ147-162-262300-
LAKE SUPERIOR

STATION/POSITION TIME  TEMP    WIND        PRES    WAVE
                       AIR SEA DIR/SP/G            HT/PER
                 (UTC) (F)     (DEG/KT/KT) (MB)    (FT/S)
DEVILS ISLAND    2100   24     280/ 22/ 26 1009.4R
PORT WING        2140   26     280/ 14/ 18 1010.5R
SAXON HARBOR     2130   27     300/ 14/ 21 1008.8R
$$

LMZ867-665-643>646-262300-
LAKE MICHIGAN

STATION/POSITION TIME  TEMP    WIND        PRES    WAVE
                       AIR SEA DIR/SP/G            HT/PER
                 (UTC) (F)     (DEG/KT/KT) (MB)    (FT/S)
CHAMBERS ISLAND  2140   36     210/  8/ 15 1007.1R
NORTHPORT PIER   2140   38     220/  5/ 15 1007.1R
SISTER BAY       2050   39     240/ 20/ 25   N/A
ALGOMA LAKESHORE 2126          250/ 20/ 26   N/A
KEWAUNEE LAKESHO 2130   38     230/ 11/ 15 1008.3R
SHEBOYGAN LAKESH 2100   39     230/ 18/ 21 1010.4S
PORT WASHINGTON  2130   43     260/ 10/ 20 1011.5S
MILWAUKEE LAKESH 2130   43     250/ 15/ 18   N/A
KENOSHA   LAKESH 2100   44     250/ 21/ 26 1012.5
$$

TC  - TEMPERATURE IN CELSIUS
VSB - VISIBILITY IN STATUTE MILES
WCI - WIND CHILL INDEX
HX  - HEAT INDEX




USA.gov is the U.S. government's official web portal to all federal, state and local government web resources and services.